View from above orbital plane
|
View from above satellite
|
Ground track
|
The orbit data is extracted from the following two-line orbital elements,
1 14760U 84019B 21055.59925684 -.00000010 00000-0 54185-5 0 9991
2 14760 74.0444 168.0958 0026937 55.1568 305.2113 14.35895488937118
Epoch (UTC): | 24 February 2021 14:22:55 |
Eccentricity: | 0.0026937 |
inclination: | 74.0444° |
perigee height: | 753 km |
apogee height: | 791 km |
right ascension of ascending node: | 168.0958° |
argument of perigee: | 55.1568° |
revolutions per day: | 14.35895488 |
mean anomaly at epoch: | 305.2113° |
orbit number at epoch: | 93711 |
The dashed part of the orbit path shows where the satellite is in the earth's shadow,
|
|